sat.trackr.live / text

‹ back to catalog

STARLINK-31997

NORAD 60288 · 2024-132L

PAYLOAD ACTIVE UNKNOWN

§ Identity

Operator
Country
US
Launch date
2024-07-28
Launch site
AFETR
Launch vehicle
Mass (kg)
RCS (m²)

Purposes: comms

External: N2YO · Heavens-Above · Gunter

§ Orbital elements

Epoch: 2026-09-21T07:08:52.778976Z

Period
93.85 min
Inclination
53.1595°
Eccentricity
0.0001306
Mean motion
15.34390876 rev/d
Perigee alt
461.8 km
Apogee alt
463.6 km
Semi-major
6,840.9 km
B*
1.8223e-8
RAAN
222.0930°
Arg perigee
86.2912°
Mean anomaly
273.8240°
Rev number
12,153

§ Raw data

STARLINK-319971 60288U 24132L   26264.29783309 -.00000376  00000+0  18223-7 0  99962 60288  53.1595 222.0930 0001306  86.2912 273.8240 15.34390876121534

JSON: /api/v1/satellites/60288 · /tle

For live sub-satellite position, see the globe view (requires WebGL).

§ Visibility from observer

Set your observer location to see the next 7 days of passes ≥ 10°. The values pass through the URL so the page stays shareable.

No JS? Fill the form by hand. The geolocation button needs JavaScript.